Location: Unspecified
(49.2170°N, 0.0000°E)
Time: 16:38:00
(UTC+00:00)

Vanguard 1 - Pass Details

Date: 23 June 2021
Orbit: 651 x 3832 km, 34.2° (Epoch: 23 July)

Event Time Altitude Azimuth Distance (km) Brightness Sun altitude
Rises 01:13:04 0° 273° (W) 7,719 14.5 -15.7°
Reaches altitude 10° 01:19:29 10° 266° (W) 6,360 14.0 -15.3°
Maximum altitude 01:34:40 32° 213° (SSW) 3,580 12.3 -14.5°
Drops below altitude 10° 01:44:18 10° 155° (SSE) 4,004 12.8 -13.9°
Sets 01:47:18 0° 145° (SE) 4,622 13.2 -13.7°
